Regional Weather Roundup
Issued by NWS Charleston, WV

Home | Current Version | Previous Version | Graphics & Text | Print | Product List | Glossary On
Versions: 1 2 3 4 5 6 7 8 9 10 11 12 13 14 15 16 17 18 19 20 21 22 23 24 25 26 27
000
ASUS41 KRLX 230410
RWRRLX
West Virginia Regional Weather Roundup
National Weather Service Charleston WV
1200 AM EDT WED APR 23 2014

Note: "fair" indicates few or no clouds below 12,000 feet with no
significant weather and/or obstructions to visibility.

WVZ003-230500-
Northern Panhandle of West Virginia

CITY           SKY/WX    TMP DP  RH WIND       PRES   REMARKS
WHEELING       CLOUDY    48  33  56 NW12G18   29.83R
$$

WVZ009-230500-
Northwest West Virginia

CITY           SKY/WX    TMP DP  RH WIND       PRES   REMARKS
PARKERSBURG    CLEAR     52  33  48 W12G20    29.88R
$$

WVZ006-230500-
Western West Virginia

CITY           SKY/WX    TMP DP  RH WIND       PRES   REMARKS
HUNTINGTON     CLEAR     53  33  46 NW14G23   29.90R
$$

WVZ015-230500-
West Central West Virginia

CITY           SKY/WX    TMP DP  RH WIND       PRES   REMARKS
CHARLESTON     CLEAR     55  32  41 NW12G28   29.87R
$$

WVZ031-230500-
North Central West Virginia

CITY           SKY/WX    TMP DP  RH WIND       PRES   REMARKS
CLARKSBURG     PTCLDY    51  36  56 NW15      29.81R
MORGANTOWN     CLOUDY    50  37  61 N7        29.82S
$$

WVZ035-042-045-230500-
South Central West Virginia

CITY           SKY/WX    TMP DP  RH WIND       PRES   REMARKS
BECKLEY        CLEAR     54  28  36 NW16      29.83R
BLUEFIELD      CLEAR     59  33  37 NW16G26   29.83R
LEWISBURG      CLEAR     55  26  33 NW12G18   29.79S
$$

WVZ047-230500-
Northern Mountains of West Virginia

CITY           SKY/WX    TMP DP  RH WIND       PRES   REMARKS
ELKINS         MOCLDY    50  42  74 NW6       29.80R
$$

WVZ052-230500-
Eastern Panhandle of West Virginia

CITY           SKY/WX    TMP DP  RH WIND       PRES   REMARKS
MARTINSBURG    CLOUDY    54  39  57 N8G18     29.73R
PETERSBURG     MOCLDY    61  47  61 NW13      29.75R
$$



USA.gov is the U.S. government's official web portal to all federal, state and local government web resources and services.